• In Hungary
  • List of Countries
  • For 7 days
  • Water Temperature
  • Satellite Maps
  • Weather Map
  • News
  • Weather Widgets
  • user-avatar
    Login

    Hourly Weather David

    Today, 20 August, Sunday

    Time Temperature Precipitation Wind Pressure Humidity
    00:00 +27°C° 0.7 mm 2 mps 754 mmHg 90%
    01:00 +27°C° 0.7 mm 2 mps 753 mmHg 90%
    02:00 +27°C° 0.5 mm 2 mps 753 mmHg 90%
    03:00 +26°C° 0.5 mm 1 mps 753 mmHg 90%
    04:00 +26°C° 0.5 mm 1 mps 753 mmHg 91%
    05:00 +26°C° 0.2 mm 1 mps 753 mmHg 90%
    06:00 +27°C° 0.2 mm 1 mps 753 mmHg 89%
    07:00 +27°C° 0.2 mm 1 mps 753 mmHg 88%
    08:00 +28°C° 0.5 mm 1 mps 754 mmHg 84%
    09:00 +28°C° 0.5 mm 2 mps 754 mmHg 81%
    10:00 +29°C° 0.5 mm 2 mps 754 mmHg 77%
    11:00 +29°C° 0.4 mm 2 mps 754 mmHg 76%
    12:00 +30°C° 0.4 mm 2 mps 754 mmHg 76%
    13:00 +30°C° 0.4 mm 3 mps 754 mmHg 75%
    14:00 +30°C° 0.5 mm 3 mps 753 mmHg 76%
    15:00 +30°C° 0.5 mm 3 mps 753 mmHg 76%
    16:00 +30°C° 0.5 mm 3 mps 752 mmHg 77%
    17:00 +29°C° 0.1 mm 2 mps 753 mmHg 81%
    18:00 +28°C° 0.1 mm 2 mps 753 mmHg 85%
    19:00 +27°C° 0.1 mm 1 mps 753 mmHg 89%
    20:00 +27°C° 0.1 mm 1 mps 754 mmHg 89%
    21:00 +27°C° 0.1 mm 1 mps 754 mmHg 88%
    22:00 +27°C° 0.1 mm 1 mps 754 mmHg 88%
    23:00 +27°C° 0 mm 1 mps 754 mmHg 88%

    Tomorrow, 21 August, Monday

    Time Temperature Precipitation Wind Pressure Humidity
    00:00 +26°C° 0 mm 1 mps 754 mmHg 88%
    01:00 +26°C° 0 mm 1 mps 754 mmHg 89%
    02:00 +26°C° 0 mm 1 mps 753 mmHg 88%
    03:00 +26°C° 0 mm 1 mps 753 mmHg 88%
    04:00 +26°C° 0 mm 1 mps 753 mmHg 88%
    05:00 +26°C° 0 mm 1 mps 753 mmHg 87%
    06:00 +26°C° 0 mm 1 mps 754 mmHg 86%
    07:00 +26°C° 0 mm 1 mps 754 mmHg 85%
    08:00 +28°C° 0 mm 1 mps 754 mmHg 78%
    09:00 +30°C° 0 mm 1 mps 755 mmHg 70%
    10:00 +32°C° 0 mm 1 mps 755 mmHg 62%
    11:00 +32°C° 0 mm 1 mps 755 mmHg 61%
    12:00 +34°C° 0 mm 2 mps 755 mmHg 59%
    13:00 +34°C° 0 mm 2 mps 754 mmHg 58%
    14:00 +32°C° 0.3 mm 2 mps 754 mmHg 64%
    15:00 +31°C° 0.3 mm 2 mps 753 mmHg 69%
    16:00 +30°C° 0.3 mm 2 mps 753 mmHg 74%
    17:00 +30°C° 0.2 mm 2 mps 753 mmHg 79%
    18:00 +29°C° 0.2 mm 1 mps 754 mmHg 84%
    19:00 +28°C° 0.2 mm 1 mps 754 mmHg 89%
    20:00 +28°C° 0 mm 1 mps 755 mmHg 89%
    21:00 +27°C° 0 mm 1 mps 755 mmHg 89%
    22:00 +27°C° 0 mm 1 mps 756 mmHg 90%
    23:00 +27°C° 0 mm 1 mps 755 mmHg 90%

    Day after tomorrow, 22 August, Tuesday

    Time Temperature Precipitation Wind Pressure Humidity
    00:00 +27°C° 0 mm 1 mps 755 mmHg 90%
    01:00 +27°C° 0 mm 1 mps 755 mmHg 90%
    02:00 +27°C° 0.1 mm 1 mps 754 mmHg 90%
    03:00 +27°C° 0.1 mm 1 mps 754 mmHg 89%
    04:00 +27°C° 0.1 mm 1 mps 754 mmHg 89%
    05:00 +27°C° 0.3 mm 1 mps 754 mmHg 87%
    06:00 +27°C° 0.3 mm 1 mps 754 mmHg 85%
    07:00 +27°C° 0.3 mm 1 mps 755 mmHg 84%
    08:00 +28°C° 0.3 mm 1 mps 755 mmHg 78%
    09:00 +30°C° 0.3 mm 1 mps 755 mmHg 71%
    10:00 +31°C° 0.3 mm 1 mps 756 mmHg 65%
    11:00 +32°C° 0.1 mm 2 mps 755 mmHg 63%
    12:00 +34°C° 0.1 mm 3 mps 755 mmHg 61%
    13:00 +35°C° 0.1 mm 3 mps 755 mmHg 60%
    14:00 +34°C° 0.8 mm 3 mps 754 mmHg 64%
    15:00 +33°C° 0.8 mm 4 mps 753 mmHg 68%
    16:00 +32°C° 0.8 mm 4 mps 753 mmHg 73%
    17:00 +30°C° 1.2 mm 3 mps 753 mmHg 78%
    18:00 +29°C° 1.2 mm 3 mps 753 mmHg 82%
    19:00 +28°C° 1.2 mm 2 mps 754 mmHg 87%
    20:00 +28°C° 0.7 mm 2 mps 754 mmHg 87%
    21:00 +27°C° 0.7 mm 2 mps 755 mmHg 87%
    22:00 +27°C° 0.7 mm 2 mps 755 mmHg 87%
    23:00 +27°C° 0.1 mm 2 mps 755 mmHg 87%

    23 August, Wednesday

    Time Temperature Precipitation Wind Pressure Humidity
    00:00 +27°C° 0.1 mm 2 mps 755 mmHg 87%
    01:00 +27°C° 0.1 mm 2 mps 754 mmHg 87%
    02:00 +27°C° 0.1 mm 2 mps 754 mmHg 88%
    03:00 +27°C° 0.1 mm 2 mps 753 mmHg 89%
    04:00 +27°C° 0.1 mm 2 mps 753 mmHg 89%
    05:00 +27°C° 0.2 mm 2 mps 753 mmHg 89%
    06:00 +27°C° 0.2 mm 2 mps 753 mmHg 89%
    07:00 +27°C° 0.2 mm 2 mps 753 mmHg 89%
    08:00 +28°C° 0.5 mm 2 mps 754 mmHg 83%
    09:00 +30°C° 0.5 mm 2 mps 754 mmHg 76%
    10:00 +31°C° 0.5 mm 2 mps 754 mmHg 70%
    11:00 +31°C° 1 mm 3 mps 754 mmHg 69%
    12:00 +33°C° 1 mm 3 mps 754 mmHg 69%
    13:00 +33°C° 1 mm 3 mps 753 mmHg 68%
    14:00 +32°C° 1.8 mm 4 mps 753 mmHg 71%
    15:00 +32°C° 1.8 mm 4 mps 752 mmHg 75%
    16:00 +30°C° 1.8 mm 4 mps 751 mmHg 78%
    17:00 +29°C° 1.9 mm 3 mps 752 mmHg 82%
    18:00 +28°C° 1.9 mm 3 mps 752 mmHg 85%
    19:00 +27°C° 1.9 mm 3 mps 752 mmHg 89%
    20:00 +27°C° 1.5 mm 2 mps 753 mmHg 89%
    21:00 +27°C° 1.5 mm 2 mps 753 mmHg 89%
    22:00 +27°C° 1.5 mm 2 mps 754 mmHg 90%
    23:00 +26°C° 1.3 mm 2 mps 753 mmHg 90%

    24 August, Thursday

    Time Temperature Precipitation Wind Pressure Humidity
    00:00 +26°C° 1.3 mm 2 mps 753 mmHg 89%
    01:00 +26°C° 1.3 mm 2 mps 753 mmHg 89%
    02:00 +26°C° 1 mm 2 mps 752 mmHg 89%
    03:00 +26°C° 1 mm 2 mps 752 mmHg 90%
    04:00 +26°C° 1 mm 2 mps 752 mmHg 90%
    05:00 +26°C° 0.7 mm 2 mps 752 mmHg 89%
    06:00 +26°C° 0.7 mm 1 mps 752 mmHg 88%
    07:00 +26°C° 0.7 mm 1 mps 752 mmHg 88%
    08:00 +27°C° 3.8 mm 2 mps 753 mmHg 87%
    09:00 +27°C° 3.8 mm 2 mps 753 mmHg 85%
    10:00 +28°C° 3.8 mm 3 mps 754 mmHg 84%
    11:00 +28°C° 2.4 mm 3 mps 754 mmHg 84%
    12:00 +28°C° 2.4 mm 3 mps 753 mmHg 83%
    13:00 +28°C° 2.4 mm 3 mps 753 mmHg 83%
    14:00 +28°C° 1.5 mm 3 mps 753 mmHg 84%
    15:00 +28°C° 1.5 mm 3 mps 753 mmHg 85%
    16:00 +27°C° 1.5 mm 2 mps 752 mmHg 86%
    17:00 +27°C° 1.4 mm 2 mps 753 mmHg 88%
    18:00 +26°C° 1.4 mm 2 mps 753 mmHg 89%
    19:00 +26°C° 1.4 mm 2 mps 753 mmHg 91%
    20:00 +25°C° 0.9 mm 2 mps 754 mmHg 90%
    21:00 +25°C° 0.9 mm 2 mps 754 mmHg 89%
    22:00 +25°C° 0.9 mm 2 mps 755 mmHg 88%
    23:00 +25°C° 0.5 mm 2 mps 754 mmHg 88%

    25 August, Friday

    Time Temperature Precipitation Wind Pressure Humidity
    00:00 +25°C° 0.5 mm 1 mps 754 mmHg 87%
    01:00 +25°C° 0.5 mm 1 mps 754 mmHg 87%
    02:00 +25°C° 0.3 mm 1 mps 754 mmHg 87%
    03:00 +25°C° 0.3 mm 1 mps 753 mmHg 87%
    04:00 +25°C° 0.3 mm 1 mps 753 mmHg 87%
    05:00 +25°C° 0.4 mm 1 mps 754 mmHg 86%
    06:00 +25°C° 0.4 mm 1 mps 754 mmHg 86%
    07:00 +25°C° 0.4 mm 1 mps 755 mmHg 86%
    08:00 +26°C° 0.3 mm 1 mps 755 mmHg 83%
    09:00 +26°C° 0.3 mm 1 mps 755 mmHg 81%
    10:00 +27°C° 0.3 mm 1 mps 756 mmHg 79%
    11:00 +28°C° 0.2 mm 1 mps 755 mmHg 77%
    12:00 +29°C° 0.2 mm 1 mps 755 mmHg 75%
    13:00 +29°C° 0.2 mm 1 mps 754 mmHg 73%
    14:00 +29°C° 0.3 mm 1 mps 754 mmHg 76%
    15:00 +28°C° 0.3 mm 1 mps 754 mmHg 79%
    16:00 +28°C° 0.3 mm 1 mps 753 mmHg 82%
    17:00 +27°C° 0.1 mm 1 mps 753 mmHg 84%
    18:00 +25°C° 0.1 mm 0 mps 754 mmHg 87%
    19:00 +24°C° 0.1 mm 0 mps 754 mmHg 89%
    20:00 +26°C° 0.2 mm 1 mps 755 mmHg 90%
    21:00 +26°C° 0.2 mm 1 mps 755 mmHg 90%
    22:00 +26°C° 0.2 mm 1 mps 756 mmHg 91%
    23:00 +26°C° 0.3 mm 1 mps 755 mmHg 90%
    Show more